Regional Weather Roundup
Issued by NWS

Home | Current Version | Previous Version | Graphics & Text | Print | Product List | Glossary On
Versions: 1 2 3 4 5 6 7 8 9 10 11 12 13 14 15 16 17 18 19 20 21 22 23 24 25 26 27 28 29 30 31 32 33 34 35 36 37 38 39 40 41 42 43 44 45 46 47 48 49 50
000
ASUS43 KMKX 020511
RWRWI

WISCONSIN REGIONAL WEATHER ROUNDUP
NATIONAL WEATHER SERVICE MILWAUKEE/SULLIVAN WI
1200 AM CDT MON MAY 02 2016

NOTE: "FAIR" INDICATES FEW OR NO CLOUDS BELOW 12,000 FEET WITH NO
SIGNIFICANT WEATHER AND/OR OBSTRUCTIONS TO VISIBILITY.

WIZ001-002-006>008-014>016-023>028-020600-
NORTHWEST WISCONSIN

CITY           SKY/WX    TMP DP  RH WIND       PRES   REMARKS
SUPERIOR ARPT  CLEAR     34  34  98 CALM      30.16F
ASHLAND        CLEAR     32  32 100 CALM      30.15F
HAYWARD        CLEAR     35  31  85 N3        30.12F
SIREN          CLEAR     38  34  85 CALM      30.13S
CUMBERLAND     CLEAR     45  32  61 N3        30.11S
RICE LAKE      CLEAR     46  34  64 N7        30.13R
CHETEK         CLEAR     45  36  70 CALM      30.11S
LADYSMITH      CLEAR     44  35  70 NE5       30.12S
EAU CLAIRE     CLEAR     49  34  56 NE8       30.09R
MENOMONIE      CLEAR     49  34  55 N6        30.10R
NEW RICHMOND   CLEAR     45  34  64 NE5       30.12R
OSCEOLA        CLEAR     48  32  53 CALM      30.15R
$$

WIZ003>005-009-010-017-018-020600-
NORTH CENTRAL WISCONSIN

CITY           SKY/WX    TMP DP  RH WIND       PRES   REMARKS
MANITOWISH WTR CLEAR     39  33  77 E3        30.11F
ARBOR VITAE    CLEAR     44  35  69 NE6       30.12S
WOODRUFF       CLEAR     44  35  69 NE6       30.12S
RHINELANDER    CLEAR     41  30  65 NE3       30.11F
EAGLE RIVER    CLEAR     36  30  78 CALM      30.12S
LAND O LAKES   CLEAR     33  31  90 CALM      30.13S
PHILLIPS       CLEAR     42  34  72 NE6       30.10F
TOMAHAWK       CLEAR     38  32  77 CALM      30.11S
MEDFORD        CLEAR     46  32  58 SE3       30.10R
MERRILL        CLEAR     39  33  80 CALM      30.11S
$$

WIZ029-030-035-036-043>047-020600-
CENTRAL WISCONSIN

CITY           SKY/WX    TMP DP  RH WIND       PRES   REMARKS
WAUSAU         CLEAR     46  34  62 N3        30.09R
MOSINEE        CLEAR     43  34  70 CALM      30.11R
MARSHFIELD     PTCLDY    45  33  63 CALM      30.10R
STEVENS POINT  CLEAR     38  32  80 CALM      30.10S
WAUPACA        CLEAR     44  38  79 CALM      30.09F
WAUTOMA        CLEAR     39  36  89 N3        30.09S
WISC RAPIDS    CLEAR     41  33  73 CALM      30.11R
CAMP DOUGLAS   CLEAR     35  35 100 W2        30.09R
$$

WIZ011>013-019>022-031-037>040-048>050-020600-
NORTHEAST WISCONSIN

CITY           SKY/WX    TMP DP  RH WIND       PRES   REMARKS
ANTIGO         CLEAR     38  34  86 CALM      30.10S
SHAWANO        CLEAR     42  38  84 CALM      30.10F
OCONTO         CLEAR     40  40 100 CALM      30.09F
STURGEON BAY   CLEAR     45  32  61 N6        30.11F
GREEN BAY      PTCLDY    43  38  82 N5        30.09S
MANITOWOC      PTCLDY    45  36  70 MISG      30.08S
APPLETON       CLEAR     41  36  81 N8        30.07S
CLINTONVILLE   CLEAR     41  34  75 CALM      30.09F
OSHKOSH        CLEAR     47  39  74 NE9       30.07F
$$

WIZ032>034-041-042-053>061-020600-
SOUTHWEST WISCONSIN

CITY           SKY/WX    TMP DP  RH WIND       PRES   REMARKS
LA CROSSE      PTCLDY    43  40  89 CALM      30.09R
SPARTA         CLEAR     36  34  93 CALM      30.10S
VIROQUA        CLOUDY    41  41 100 CALM      30.09R VSB 1/4
BOSCOBEL       FOG       39  38  96 CALM      30.09R VSB<1/4
PRAIRIE DU CHI FOG       44  42  95 NW5       30.09R VSB 1/2
PLATTEVILLE    CLOUDY    47  44  88 N5        30.07R
$$

WIZ056-057-062-063-064-067-068-020600-
SOUTH CENTRAL WISCONSIN

CITY           SKY/WX    TMP DP  RH WIND       PRES   REMARKS
REEDSBURG      CLEAR     42  38  84 CALM      30.08R
BARABOO/DELLS  CLEAR     44  38  80 NE5       30.08R
LONE ROCK      MOCLDY    42  39  89 N3        30.08R
MINERAL POINT  PTCLDY    46  43  87 N5        30.07R
MADISON        CLOUDY    48  42  80 NE13      30.06R
MIDDLETON      CLOUDY    49  43  79 NE8       30.07R
WATERTOWN      CLOUDY    47  44  90 NE8       30.05S
MONROE         CLOUDY    46  43  87 NE13      30.04S
JANESVILLE     CLOUDY    46  46 100 NE7       30.05R
$$

WIZ051-052-058>065-066-070>072-020600-
SOUTHEAST WISCONSIN

CITY           SKY/WX    TMP DP  RH WIND       PRES   REMARKS
MILWAUKEE      LGT RAIN  44  42  93 NE10      30.04F
WAUKESHA       CLOUDY    43  43 100 NE7       30.05S
MILWAUKEE/TIMM CLOUDY    45  41  87 N3        30.06S
RACINE         CLOUDY    44  41  89 NE9       30.05S
BURLINGTON     CLOUDY    45  44  98 NE7       30.03R
KENOSHA        CLOUDY    45  42  89 NE9       30.03R
FOND DU LAC    CLOUDY    49  39  68 NE9       30.07S
SHEBOYGAN      CLOUDY    45  37  73 NE8       30.06F
WEST BEND      CLOUDY    45  37  76 NE3       30.05F
JUNEAU         CLOUDY    46  40  79 N6        30.07S
$$

LSZ147-162-020600-
LAKE SUPERIOR

STATION/POSITION TIME  TEMP    WIND        PRES    WAVE
                       AIR SEA DIR/SP/G            HT/PER
                 (UTC) (F)     (DEG/KT/KT) (MB)    (FT/S)
W MID LAKE BUOY  0450   37 36  340/  4/  4 1021.8F   2/ 5
DEVILS ISLAND    0500   41      10/  6/  6 1021.7F
SAXON HARBOR     0400   32     200/  3/  4 1020.7F
$$

LMZ867-665-643>646-020600-
LAKE MICHIGAN

STATION/POSITION TIME  TEMP    WIND        PRES    WAVE
                       AIR SEA DIR/SP/G            HT/PER
                 (UTC) (F)     (DEG/KT/KT) (MB)    (FT/S)
CHAMBERS ISLAND  0400   44     350/  9/ 10 1019.6F
N MID LAKE BUOY  0450   42 38  340/ 10/ 12 1018.8F   1
NORTHPORT PIER   0500   42     340/ 11/ 18 1019.0F
KEWAUNEE LAKESHO 0400   48      10/  8/ 10 1018.2R
SHEBOYGAN LAKESH 0500   43      10/ 12/ 14 1018.7F
PORT WASHINGTON  0440   47     340/  4/  7 1018.6F
S MID LAKE BUOY  0450   42 40   50/ 10/ 12 1016.6F   2/ 5
KENOSHA   LAKESH 0500   45      20/ 13/ 16 1016.9R
$$

TC  - TEMPERATURE IN CELSIUS
VSB - VISIBILITY IN STATUTE MILES
WCI - WIND CHILL INDEX
HX  - HEAT INDEX





USA.gov is the U.S. government's official web portal to all federal, state and local government web resources and services.